KEVWKVEL

Guest
Details From KEVW - Evanston Uinta Co Burns Fld
To KVEL - VERNAL
Flight Number -
Tags generated
Created
Modified
Stats Distance 87 nm / 161 km
Max Altitude 6,100 ft / 1,859 m
Waypoints 3
Social Downloads 0
Likes 0
Share VATSIM

Download

Looking for another format? Having issues loading an existing format? Contact us
Advertisement - Login to hide

Notes

Basic altitude profile: - Ascent Rate: 2500ft/min - Ascent Speed: 250kts - Cruise Altitude: 35000ft - Cruise Speed: 420kts - Descent Rate: 1500ft/min - Descent Speed: 250kts Options: - Use NATs: yes - Use PACOTS: yes - Use low airways: yes - Use high airways: yes

Route

KEVW GRODI KVEL

ID Type Via Altitude Latitude Longitude Leg Dist Tot Dist Heading (true) Name
O KEVW APT - 0 ft / 0 m 41.27479˚ -111.03462˚ - 0 nm - Evanston Uinta Co Burns Fld
GRODI FIX - 6,100 ft / 1,859 m 41.20674˚ -110.66525˚ 17 nm 17 nm 104° / 104° -
O KVEL APT - 0 ft / 0 m 40.44156˚ -109.50978˚ 69 nm 86 nm 131° / 132° VERNAL

Altitude Profile

Advertisement - Login to hide

KEVW

Details ICAO KEVW
Name Evanston Uinta Co Burns Fld
Region United States
Timezone America/Denver (UTC-6.0)
Stats Elevation 7,143 ft / 2,177 m (AMSL)
Location 41.274791° -111.034623°
Runways 1
Magnetic Variation 11.118° E

METAR

KEVW 221753Z AUTO 11003KT 10SM SCT060 OVC080 12/04 A3005 RMK AO2 SLP110 60000 T01170044 10128 20056 58004

Decode

TAF

TAF KEVW 221731Z 2218/2318 VRB06KT P6SM -SHRA BKN050 OVC080 FM230300 12006KT P6SM VCSH SCT060 BKN100 FM230900 20007KT P6SM SCT080 BKN130

Decode

Departure Runways

ID Width Length Bearing (true) Bearing (mag) Surface Threshold Offset Overrun Length
05 98 ft / 30 m 7,588 ft / 2,313 m 66.69° 55.57° Asphalt 144 ft / 44 m 0 ft / 0 m
23 98 ft / 30 m 7,588 ft / 2,313 m 246.71° 235.59° Asphalt 144 ft / 44 m 0 ft / 0 m

KVEL

Details ICAO KVEL (VEL)
Name VERNAL
Region United States
Timezone America/Denver (UTC-6.0)
Stats Elevation 5,278 ft / 1,609 m (AMSL)
Location 40.441560° -109.509776°
Runways 2
Magnetic Variation 10.379° E

METAR

KVEL 221753Z AUTO 34005KT 10SM OVC100 18/01 A2996 RMK AO2 RAB1656E27 SLP090 P0000 60000 T01780006 10200 20106 50004

Decode

TAF

KVEL 221800Z 2218/2318 35005KT P6SM VCSH BKN080 OVC100 TEMPO 2218/2220 VRB10G20KT -SHRA FM222000 27008KT P6SM VCTS BKN080CB OVC100 FM230100 31006KT P6SM SCT070 BKN110 FM231700 20006KT P6SM FEW070 SCT150

Decode

Destination Runways

ID Width Length Bearing (true) Bearing (mag) Surface Threshold Offset Overrun Length
07 60 ft / 18 m 4,098 ft / 1,249 m 89.26° 78.88° Asphalt 0 ft / 0 m 0 ft / 0 m
16 150 ft / 46 m 6,210 ft / 1,893 m 179.02° 168.64° Asphalt 0 ft / 0 m 0 ft / 0 m
25 60 ft / 18 m 4,098 ft / 1,249 m 269.27° 258.89° Asphalt 0 ft / 0 m 0 ft / 0 m
34 150 ft / 46 m 6,210 ft / 1,893 m 359.02° 348.64° Asphalt 0 ft / 0 m 0 ft / 0 m